Hourly Weather Roundup
Issued by NWS Central Illinois

Home | Current Version | Previous Version | Text Only | Print | Product List | Glossary On
Versions: 1 2 3 4 5 6 7 8 9 10 11 12 13 14 15 16 17 18 19 20 21 22 23 24 25 26 27 28 29 30 31 32 33 34 35 36 37 38 39 40 41 42 43 44 45 46 47 48 49 50
000
NZUS43 KILX 051610
HWRILX

AREA WEATHER ROUNDUP
NATIONAL WEATHER SERVICE, LINCOLN IL
1000 AM CST MON DEC 05 2016


CITY           SKY/WX    TMP DP  RH WIND       PRES   REMARKS
BLOOMINGTON    FOG       33  32  96 S12       30.05S VSB 1   WCI  24
CHAMPAIGN      CLOUDY    34  31  88 S10       30.08R WCI  26
DANVILLE       CLOUDY    34  32  92 S8        30.06R WCI  27
DECATUR        CLOUDY    35  32  88 S10       30.07S WCI  27
EFFINGHAM      CLOUDY    36  35  95 E8        30.12R WCI  30
FLORA          CLOUDY    38  34  87 E7        30.12R WCI  32
GALESBURG      FOG       33  33 100 SE9G16    29.99S VSB 3/4 WCI  25
JACKSONVILLE   CLOUDY    36  34  92 S10       30.05R WCI  28
LACON          CLOUDY    33  32  99 S6        30.04R FOG     WCI  27
LAWRENCEVILLE  NOT AVBL
LITCHFIELD     CLOUDY    37  34  91 SE9       30.07R WCI  30
$$


CITY           SKY/WX    TMP DP  RH WIND       PRES   REMARKS
LINCOLN        CLOUDY    35  35  99 SE7       30.06S FOG     WCI  29
MACOMB         CLOUDY    34  34 100 S12       30.03R FOG     WCI  25
MATTOON        CLOUDY    35  31  85 S10       30.09R WCI  27
MT CARMEL AP   CLOUDY    37  32  81 E7        30.12S WCI  32
OLNEY-NOBLE AP CLOUDY    36  36 100 SE6       30.12R WCI  31
PARIS          CLOUDY    35  33  91 S8        30.11R WCI  28
PEORIA         CLOUDY    35  34  96 S9        30.04S WCI  28
PONTIAC        CLOUDY    32  32 100 S14       30.06S FOG     WCI  22
RANTOUL        CLOUDY    35  33  92 S12       30.08R WCI  26
SPRINGFIELD    CLOUDY    38  34  85 S12       30.05F WCI  30
TAYLORVILLE    CLOUDY    36  34  93 SE7       30.08R WCI  30
$$

...REGIONAL REPORTS...


CITY           SKY/WX    TMP DP  RH WIND       PRES   REMARKS
CHICAGO O`HARE CLOUDY    32  30  92 S13       30.03R FOG     WCI  22
KANKAKEE       CLOUDY    32  31  93 S8        30.08R WCI  25
MOLINE         FOG       33  30  88 SE9       29.98S VSB 1   WCI  25
MOUNT STERLING FOG       32  32 100 S10       30.01R VSB 1/4 WCI  24
MOUNT VERNON   NOT AVBL
PITTSFIELD     FOG       35  35 100 S7        30.04R VSB<1/4 WCI  29
QUINCY         FOG       33  33 100 S8        30.01R VSB<1/4 WCI  26
ROCKFORD       FOG       31  30  96 S14       30.02R VSB 1/2 WCI  21
$$


CITY           SKY/WX    TMP DP  RH WIND       PRES   REMARKS
BURLINGTON     FOG       32  32 100 S12       29.99R VSB 1/4 WCI  23
CEDAR RAPIDS   FOG       31  31 100 S12       29.92R VSB 1/4 WCI  22
DES MOINES     FAIR      39  35  86 S12       29.85S WCI  32
KIRKSVILLE     NOT AVBL
OTTUMWA        CLOUDY    33  32  96 S16       29.92S FOG     WCI  23
ST LOUIS       CLOUDY    41  34  76 S9        30.06R
$$


CITY           SKY/WX    TMP DP  RH WIND       PRES   REMARKS
TERRE HAUTE    NOT AVBL
EVANSVILLE     CLOUDY    39  33  79 E9        30.12R WCI  33
INDIANAPOLIS   CLOUDY    36  30  79 S9        30.11R WCI  29
LAFAYETTE      CLOUDY    34  31  88 S9        30.10R WCI  27
MADISON        CLOUDY    33  32  96 S10       29.94S FOG     WCI  25
MILWAUKEE      CLOUDY    34  31  88 S9        30.00R WCI  27
$$






USA.gov is the U.S. government's official web portal to all federal, state and local government web resources and services.